Weather History for Newport News, VA

Change the Weather History Date:

Friday, January 17, 2014

  Actual Average Record
Temperature  
Mean Temperature 44 °F -  
Max Temperature 55 °F 48 °F 72 °F (1949)
Min Temperature 34 °F 27 °F 5 °F (1977)
Degree Days  
Heating Degree Days 20    
Moisture  
Dew Point 30 °F    
Average Humidity 56    
Maximum Humidity 79    
Minimum Humidity 37    
Precipitation  
Precipitation 0.00 in - - ()
Sea Level Pressure  
Sea Level Pressure 29.95 in    
Wind  
Wind Speed 10 mph (SSW)    
Max Wind Speed 15 mph    
Max Gust Speed -    
Visibility 10 miles    
Events      
Averages and records for this station are not official NWS values.
T = Trace of Precipitation, MM = Missing Value Source: NWS Daily Summary

Daily Weather History Graph

Daily Weather History Graph

Search for Another Location

Airport:

Trip Planner

Search our weather history database for the weather conditions in past years. The results will help you decide how hot, cold, wet, or windy it might be!

Date:

Astronomy

Jan. 17, 2014 Rise Set
Actual Time 7:17 AM EST 5:14 PM EST
Civil Twilight 6:49 AM EST 5:42 PM EST
Nautical Twilight 6:17 AM EST 6:14 PM EST
Astronomical Twilight 5:46 AM EST 6:45 PM EST
Moon 6:55 PM EST (1/17) 7:47 AM EST (1/17)
Length of Visible Light 10h 53m
Length of Day
9h 56m
Full, 98% of the Moon is Illuminated
Jan 17
Full
Jan 24
Last Quarter
Jan 30
New
Feb 6
First Quarter
Feb 14
Full

Hourly Weather History & Observations

Time (EST) Temp. Windchill Dew Point Humidity Pressure Visibility Wind Dir Wind Speed Gust Speed Precip Events Conditions
12:54 AM 36.0 °F 28.5 °F 28.9 °F 76% 30.02 in 10.0 mi SW 10.4 mph - N/A   Clear
1:54 AM 35.1 °F 29.3 °F 28.9 °F 78% 30.01 in 10.0 mi SW 6.9 mph - N/A   Clear
2:54 AM 36.0 °F 27.5 °F 28.9 °F 76% 30.02 in 10.0 mi SW 12.7 mph - N/A   Clear
3:54 AM 36.0 °F 29.0 °F 28.9 °F 76% 30.01 in 10.0 mi SW 9.2 mph - N/A   Clear
4:54 AM 34.0 °F 28.8 °F 28.0 °F 79% 30.00 in 10.0 mi SSW 5.8 mph - N/A   Clear
5:54 AM 36.0 °F 33.3 °F 28.0 °F 73% 30.00 in 10.0 mi South 3.5 mph - N/A   Clear
6:54 AM 34.0 °F 31.0 °F 27.0 °F 75% 30.01 in 10.0 mi SSE 3.5 mph - N/A   Clear
8:54 AM 39.9 °F 32.5 °F 28.9 °F 65% 30.03 in 10.0 mi SSW 12.7 mph - N/A   Clear
9:54 AM 43.0 °F 36.8 °F 28.0 °F 56% 30.02 in 10.0 mi SW 11.5 mph - N/A   Clear
10:54 AM 46.0 °F 40.2 °F 28.0 °F 50% 30.02 in 10.0 mi SW 12.7 mph - N/A   Clear
11:54 AM 48.0 °F - 27.0 °F 44% 30.00 in 10.0 mi SW 12.7 mph - N/A   Clear
12:54 PM 50.0 °F - 27.0 °F 41% 29.95 in 10.0 mi SW 5.8 mph - N/A   Clear
1:54 PM 54.0 °F - 28.9 °F 38% 29.93 in 10.0 mi South 10.4 mph - N/A   Clear
2:54 PM 55.0 °F - 28.9 °F 37% 29.91 in 10.0 mi SSW 15.0 mph - N/A   Clear
3:54 PM 54.0 °F - 30.0 °F 40% 29.90 in 10.0 mi SSE 10.4 mph - N/A   Clear
4:54 PM 53.1 °F - 30.0 °F 41% 29.90 in 10.0 mi South 11.5 mph - N/A   Clear
5:54 PM 51.1 °F - 30.0 °F 44% 29.90 in 10.0 mi South 8.1 mph - N/A   Clear
6:54 PM 51.1 °F - 30.0 °F 44% 29.89 in 10.0 mi South 11.5 mph - N/A   Clear
7:54 PM 50.0 °F - 30.0 °F 46% 29.88 in 10.0 mi South 13.8 mph - N/A   Clear
8:54 PM 50.0 °F - 32.0 °F 50% 29.89 in 10.0 mi South 10.4 mph - N/A   Clear
9:54 PM 51.1 °F - 33.1 °F 50% 29.88 in 10.0 mi SSW 13.8 mph - N/A   Clear
10:54 PM 50.0 °F - 35.1 °F 57% 29.87 in 10.0 mi SSW 11.5 mph - N/A   Clear
11:54 PM 50.0 °F - 35.1 °F 57% 29.85 in 10.0 mi SSW 9.2 mph - N/A   Clear